Location: Bailleul
(50.3375°N, 2.8513°E)
Time: 18:46:45
(UTC+00:00)

Cosmos 1536 Rocket - Visible Passes

Search period start: 23 October 2021 00:00
Search period end: 02 November 2021 00:00
Orbit: 604 x 633 km, 82.5° (Epoch: 22 October)

Date Brightness Start Highest point End Pass type
(mag) Time Alt. Az. Time Alt. Az. Time Alt. Az.
23 Oct 6.9 04:16:40 10° ESE 04:18:56 14° E 04:21:12 10° NE visible
23 Oct 3.5 05:51:49 10° SSW 05:56:12 72° WNW 06:00:36 10° N visible
23 Oct 6.5 17:34:04 10° NW 17:37:17 21° W 17:40:29 10° SW visible
24 Oct 6.1 04:32:26 10° SE 04:35:54 23° E 04:39:22 10° NE visible
24 Oct 7.0 17:52:30 10° WNW 17:54:13 12° W 17:55:58 10° WSW visible
25 Oct 5.1 04:48:53 10° SSE 04:52:58 39° E 04:57:01 10° NNE visible
26 Oct 3.9 05:05:45 10° S 05:10:06 68° E 05:14:27 10° NNE visible
27 Oct 6.7 03:47:41 10° ESE 03:50:02 14° E 03:52:23 10° NE visible
27 Oct 3.5 05:22:58 10° SSW 05:27:20 69° W 05:31:42 10° N visible
27 Oct 6.5 17:05:14 10° NW 17:08:23 20° W 17:11:32 10° SW visible
28 Oct 5.9 04:03:31 10° SE 04:07:00 24° E 04:10:30 10° NE visible
28 Oct 4.0 05:40:32 10° SW 05:44:39 40° WNW 05:48:47 10° N visible
28 Oct 6.9 17:23:45 10° WNW 17:25:19 12° W 17:26:53 10° WSW visible
29 Oct 4.9 04:19:58 10° SSE 04:24:04 40° E 04:28:09 10° NNE visible
29 Oct 4.6 05:58:30 10° WSW 06:02:05 24° WNW 06:05:40 10° NNW visible
30 Oct 3.8 04:36:52 10° S 04:41:13 71° E 04:45:33 10° NNE visible
31 Oct 6.5 03:18:42 10° ESE 03:21:08 15° E 03:23:35 10° NE visible
31 Oct 3.4 04:54:07 10° SSW 04:58:27 67° W 05:02:48 10° N visible
01 Nov 5.7 03:34:35 10° SE 03:38:07 25° E 03:41:39 10° NNE visible
01 Nov 4.0 05:11:42 10° SW 05:15:47 38° WNW 05:19:53 10° N visible
01 Nov 6.9 16:55:01 10° WNW 16:56:25 11° W 16:57:49 10° W visible
